Location: Newark
(50.4348°N, 30.5552°E)
Time: 09:15:26
(UTC+00:00)

Vanguard 3 - All Passes

Search period start: 22 January 2020 00:00
Search period end: 01 February 2020 00:00
Orbit: 507 x 3263 km, 33.4° (Epoch: 21 January)

Date Brightness Start Highest point End Pass type
(mag) Time Alt. Az. Time Alt. Az. Time Alt. Az.
22 Jan - 13:18:31 10° SSE 13:25:59 13° SE 13:33:08 10° ESE daylight
22 Jan - 15:23:38 10° SSW 15:38:55 30° SSE 15:51:22 10° ESE visible
22 Jan - 17:36:19 10° SW 17:52:33 39° S 18:03:47 10° ESE visible
22 Jan - 19:52:04 10° WSW 20:05:14 32° SSW 20:13:53 10° SE visible
22 Jan - 22:10:36 10° WSW 22:15:52 14° SW 22:20:06 10° SSW visible
23 Jan - 14:10:04 10° S 14:23:32 23° SE 14:35:39 10° ESE daylight
23 Jan - 16:20:23 10° SW 16:37:06 37° SSE 16:49:49 10° ESE visible
23 Jan - 18:34:58 10° WSW 18:50:35 38° S 19:01:03 10° SE visible
23 Jan - 20:51:52 10° WSW 21:02:24 24° SSW 21:09:43 10° SSE visible
24 Jan - 12:58:45 10° SSE 13:08:27 16° SE 13:17:53 10° ESE daylight
24 Jan - 15:05:24 10° SSW 15:21:29 33° SSE 15:35:04 10° ESE visible
24 Jan - 17:18:20 10° WSW 17:35:21 41° S 17:47:34 10° ESE visible
24 Jan - 19:34:13 10° WSW 19:48:16 33° SSW 19:57:41 10° SE visible
24 Jan - 21:53:20 10° WSW 21:58:59 14° SW 22:03:36 10° SSW visible
25 Jan - 13:51:41 10° SSW 14:05:58 26° SSE 14:19:20 10° E daylight
25 Jan - 16:02:25 10° SW 16:19:43 40° S 16:33:27 10° ESE visible
25 Jan - 18:17:04 10° WSW 18:33:27 40° SSW 18:44:48 10° SE visible
25 Jan - 20:34:13 10° W 20:45:25 24° SW 20:53:23 10° SSE visible
26 Jan - 12:39:50 10° S 12:50:50 19° SE 13:01:54 10° ESE daylight
26 Jan - 14:47:26 10° SW 15:03:57 35° SSE 15:18:35 10° ESE visible
26 Jan - 17:00:29 10° WSW 17:18:03 43° S 17:31:13 10° ESE visible
26 Jan - 19:16:25 10° W 19:31:10 33° SSW 19:41:23 10° SSE visible
26 Jan - 21:36:07 10° WSW 21:41:59 14° SW 21:46:50 10° SSW visible
27 Jan - 11:34:04 10° SE 11:36:14 10° SE 11:38:25 10° ESE daylight
27 Jan - 13:33:39 10° SSW 13:48:21 29° SSE 14:02:45 10° E daylight
27 Jan - 15:44:38 10° SW 16:02:14 42° S 16:16:56 10° ESE visible
27 Jan - 17:59:16 10° WSW 18:16:12 40° SSW 18:28:26 10° SE visible
27 Jan - 20:16:34 10° W 20:28:19 24° SW 20:36:54 10° S visible
28 Jan - 12:21:29 10° S 12:33:11 21° SE 12:45:28 10° E daylight
28 Jan - 14:29:43 10° SW 14:46:21 38° SSE 15:01:54 10° ESE daylight
28 Jan - 16:42:46 10° WSW 17:00:38 44° S 17:14:43 10° ESE visible
28 Jan - 18:58:40 10° W 19:13:56 33° SSW 19:24:56 10° SSE visible
28 Jan - 21:19:00 10° WSW 21:24:51 13° SW 21:29:49 10° SSW visible
29 Jan - 11:12:53 10° SSE 11:18:37 12° SE 11:24:38 10° ESE daylight
29 Jan - 13:15:55 10° SSW 13:30:41 31° SSE 13:45:57 10° E daylight
29 Jan - 15:27:02 10° SW 15:44:41 43° S 16:00:16 10° ESE visible
29 Jan - 17:41:34 10° WSW 17:58:49 40° SSW 18:11:55 10° SE visible
29 Jan - 19:58:59 10° W 20:11:04 23° SW 20:20:13 10° S visible
30 Jan - 12:03:33 10° S 12:15:31 23° SE 12:28:42 10° E daylight
30 Jan - 14:12:13 10° SW 14:28:42 40° SSE 14:45:03 10° ESE daylight
30 Jan - 16:25:12 10° WSW 16:43:07 44° S 16:58:04 10° ESE visible
30 Jan - 18:41:01 10° W 18:56:34 33° SSW 19:08:18 10° SSE visible
30 Jan - 21:02:06 10° WSW 21:07:36 13° SW 21:12:24 10° SSW visible
31 Jan - 10:53:53 10° SSE 11:01:01 14° SE 11:08:48 10° ESE daylight
31 Jan - 12:58:26 10° SSW 13:13:00 33° SSE 13:28:57 10° E daylight
31 Jan - 15:09:37 10° WSW 15:27:05 45° S 15:43:26 10° ESE visible
31 Jan - 17:24:00 10° WSW 17:41:21 40° SSW 17:55:14 10° SE visible
31 Jan - 19:41:30 10° W 19:53:43 22° SW 20:03:20 10° S visible
